This is the latest recevied weather packets stored in our database for station/object KD0JCP-10. If no packets are shown the sender has not sent any weather packets the latest 1 day(s).
| Time | Temp. | Humidity | Pressure | Rain* | Wind** | Luminosity | Snow |
|---|---|---|---|---|---|---|---|
| 1778031672 | 9.44° C | 66% | 1015.1 hPa | 0 mm | 0.45 m/s, 303° | - | - |
| 1778031372 | 9.44° C | 65% | 1015.1 hPa | 0 mm | 0.45 m/s, 300° | - | - |
| 1778031072 | 10° C | 64% | 1014.9 hPa | 0 mm | 0.45 m/s, 299° | - | - |
| 1778030772 | 10° C | 64% | 1014.8 hPa | 0 mm | 0 m/s | - | - |
| 1778030472 | 10° C | 64% | 1014.6 hPa | 0 mm | 0 m/s | - | - |
| 1778030172 | 10° C | 64% | 1014.4 hPa | 0 mm | 0 m/s | - | - |
| 1778029872 | 10° C | 63% | 1014.2 hPa | 0 mm | 0 m/s | - | - |
| 1778029572 | 10° C | 63% | 1014.3 hPa | 0 mm | 0 m/s | - | - |
| 1778029272 | 10° C | 61% | 1014.2 hPa | 0 mm | 0 m/s | - | - |
| 1778028972 | 10° C | 61% | 1014.1 hPa | 0 mm | 0 m/s | - | - |
| 1778028672 | 10° C | 61% | 1014.1 hPa | 0 mm | 0 m/s | - | - |
| 1778028372 | 10° C | 62% | 1014.1 hPa | 0 mm | 0.45 m/s, 286° | - | - |
| 1778028072 | 10.56° C | 62% | 1014.1 hPa | 0 mm | 0.45 m/s, 288° | - | - |
| 1778027772 | 10.56° C | 60% | 1014.1 hPa | 0 mm | 0.45 m/s, 296° | - | - |
| 1778027472 | 10.56° C | 60% | 1014.1 hPa | 0 mm | 0.45 m/s, 299° | - | - |
| 1778027172 | 10.56° C | 60% | 1014.3 hPa | 0 mm | 0.45 m/s, 302° | - | - |
| 1778026872 | 11.11° C | 57% | 1014.2 hPa | 0 mm | 0.45 m/s, 304° | - | - |
| 1778026572 | 11.11° C | 56% | 1014 hPa | 0 mm | 0.45 m/s, 304° | - | - |
| 1778026272 | 11.11° C | 55% | 1013.9 hPa | 0 mm | 0.45 m/s, 295° | - | - |
| 1778025972 | 11.11° C | 53% | 1013.9 hPa | 0 mm | 0.45 m/s, 317° | - | - |
| 1778025672 | 11.67° C | 52% | 1013.9 hPa | 0 mm | 0.45 m/s, 324° | - | - |
| 1778025372 | 11.67° C | 52% | 1013.9 hPa | 0 mm | 0.45 m/s, 324° | - | - |
| 1778025072 | 11.67° C | 50% | 1013.9 hPa | 0 mm | 0.45 m/s, 321° | - | - |
| 1778024772 | 11.67° C | 50% | 1013.8 hPa | 0 mm | 0.45 m/s, 55° | - | - |
| 1778024472 | 11.67° C | 47% | 1013.8 hPa | 0 mm | 0.45 m/s, 55° | - | - |
* Rain latest hour (hover to see other rain measurements)
** Current wind speed in m/s (hover to see current wind gust speed)